Regional Weather Roundup
Issued by NWS Northern Indiana

Home | Current Version | Previous Version | Graphics & Text | Print | Product List | Glossary On
Versions: 1 2 3 4 5 6 7 8 9 10 11 12 13 14 15 16 17 18 19 20 21 22 23 24 25 26 27 28 29 30 31 32 33 34 35 36 37 38 39 40 41 42 43 44 45 46 47 48 49 50
000
ASUS43 KIWX 200400
RWRIWX

KIWX WEATHER ROUNDUP
NATIONAL WEATHER SERVICE NORTHERN INDIANA
1200 AM EDT WED AUG 20 2014

NOTE: "FAIR" INDICATES FEW OR NO CLOUDS BELOW 12,000 FEET WITH NO
SIGNIFICANT WEATHER AND/OR OBSTRUCTIONS TO VISIBILITY.

* THESE STATIONS ARE NOT UNDER NWS QUALITY CONTROL. THEY ALSO MAY NOT
  REPORT WEATHER SUCH AS PRECIPITATION OR FOG.

INZ001>027-200500-
NORTHERN INDIANA

CITY           SKY/WX    TMP DP  RH WIND       PRES   REMARKS
VALPARAISO     PTCLDY    69  65  86 SW6       29.79R
KNOX*          CLEAR     67  64  89 S6        29.78S
SOUTH BEND     PTCLDY    71  65  81 SW3       29.79R
GOSHEN         MOCLDY    71  66  84 S8        29.79F
MONTICELLO*    CLEAR     66  64  95 S6        29.81R
WARSAW*        MOCLDY    70  68  94 CALM      29.79F
ANGOLA*        PTCLDY    68  59  73 S5        29.81R
FORT WAYNE     CLOUDY    70  68  93 S3        29.81F
PERU/GRISSOM   PTCLDY    67  67 100 S6        29.81S

$$
INZ028>050-200500-
CENTRAL INDIANA

CITY           SKY/WX    TMP DP  RH WIND       PRES   REMARKS
LAFAYETTE      CLEAR     66  64  93 NW3       29.82R
KOKOMO*        MOCLDY    66  37  34 SW7       29.82S
MUNCIE*        CLOUDY    71  66  84 W8        29.84S
INDIANAPOLIS   TSTM      68  63  84 W7        29.84F

$$
MIZ043>046-050>051-056>058-064>065-071>073-077>080-200500-
SOUTHWEST LOWER MICHIGAN

CITY           SKY/WX    TMP DP  RH WIND       PRES   REMARKS
BATTLE CREEK   MOCLDY    69  65  86 S5        29.78F
BENTON HARBOR  MOCLDY    71  67  87 W10       29.77R
COLDWATER*     CLOUDY    71  67  89 S5        29.79F
HILLSDALE*     LGT RAIN  67  67  99 CALM      29.82R
HOLLAND        MOCLDY    69  67  93 CALM      29.76F FOG
GRAND RAPIDS   MOCLDY    71  70  96 SW3       29.76F
KALAMAZOO      MOCLDY    70  66  87 S5        29.78S
STURGIS*       CLOUDY    70  66  88 S5        29.79S
THREE RIVERS*  FAIR      69  67  93 SW6       29.79S

$$
OHZ001>008-015>018-024>025-200500-
NORTHWEST OHIO

CITY           SKY/WX    TMP DP  RH WIND       PRES   REMARKS
DEFIANCE       LGT RAIN  70  66  87 S7        29.81F
FINDLAY        LGT RAIN  69  67  93 W3        29.83S
TOLEDO EXPRESS CLOUDY    67  66  97 S5        29.82R
TOLEDO METCALF CLOUDY    68  64  87 S7        29.82S
LIMA           CLOUDY    70  66  87 CALM      29.84F

$$
&&



USA.gov is the U.S. government's official web portal to all federal, state and local government web resources and services.